"Sample Date","Sample Time","Sample Value","Units","Flow Rate","Sample Interval","Number Channels","Micron Size 0","Counts/Channel 0","Micron Size 1","Counts/Channel 1","Micron Size 2","Counts/Channel 2","Micron Size 3","Counts/Channel 3","Micron Size 4","Counts/Channel 4","Micron Size 5","Counts/Channel 5","Micron Size 6","Counts/Channel 6","Micron Size 7","Counts/Channel 7","Micron Size 8","Counts/Channel 8","Micron Size 9","Counts/Channel 9","Micron Size 10","Counts/Channel 10","Micron Size 11","Counts/Channel 11","Micron Size 12","Counts/Channel 12","Micron Size 13","Counts/Channel 13","Micron Size 14","Counts/Channel 14","Micron Size 15","Counts/Channel 15","Micron Size 16","Counts/Channel 16","Micron Size 17","Counts/Channel 17","Micron Size 18","Counts/Channel 18","Micron Size 19","Counts/Channel 19","Micron Size 20","Counts/Channel 20","Micron Size 21","Counts/Channel 21","Micron Size 22","Counts/Channel 22","Micron Size 23","Counts/Channel 23","Micron Size 24","Counts/Channel 24","Micron Size 25","Counts/Channel 25","Micron Size 26","Counts/Channel 26","Micron Size 27","Counts/Channel 27","Micron Size 28","Counts/Channel 28","Micron Size 29","Counts/Channel 29","Micron Size 30","Counts/Channel 30","Micron Size 31","Counts/Channel 31"
"04/08/08","22:00:05",14981.000,"cc",28412.924,6.00,6,0.100,9325.000,0.200,1852.000,0.300,1540.000,0.500,1668.000,1.000,596.000,5.000,0
"04/08/08","22:00:11",14215.000,"cc",28545.250,6.00,6,0.100,9078.000,0.200,1687.000,0.300,1348.000,0.500,1526.000,1.000,576.000,5.000,0
"04/08/08","22:00:17",14667.000,"cc",28115.365,6.00,6,0.100,9277.000,0.200,1756.000,0.300,1421.000,0.500,1593.000,1.000,620.000,5.000,0
"04/08/08","22:00:23",15263.000,"cc",28090.088,6.00,6,0.100,9423.000,0.200,1926.000,0.300,1541.000,0.500,1724.000,1.000,649.000,5.000,0
"04/08/08","22:00:29",15766.000,"cc",28418.951,6.00,6,0.100,9626.000,0.200,1949.000,0.300,1609.000,0.500,1837.000,1.000,745.000,5.000,0
"04/08/08","22:00:35",15468.000,"cc",28502.529,6.00,6,0.100,9483.000,0.200,1949.000,0.300,1528.000,0.500,1802.000,1.000,706.000,5.000,0
"04/08/08","22:00:41",15523.000,"cc",28077.283,6.00,6,0.100,9588.000,0.200,1918.000,0.300,1571.000,0.500,1773.000,1.000,673.000,5.000,0
"04/08/08","22:00:47",14985.000,"cc",28185.369,6.00,6,0.100,9485.000,0.200,1815.000,0.300,1469.000,0.500,1626.000,1.000,590.000,5.000,0
"04/08/08","22:00:53",14949.000,"cc",28484.115,6.00,6,0.100,9244.000,0.200,1866.000,0.300,1518.000,0.500,1656.000,1.000,665.000,5.000,0
"04/08/08","22:00:59",15326.000,"cc",28248.328,6.00,6,0.100,9487.000,0.200,1915.000,0.300,1564.000,0.500,1731.000,1.000,629.000,5.000,0
"04/08/08","22:01:05",14726.000,"cc",28186.815,6.00,6,0.100,9252.000,0.200,1832.000,0.300,1459.000,0.500,1590.000,1.000,593.000,5.000,0
"04/08/08","22:01:11",14970.000,"cc",28450.463,6.00,6,0.100,9389.000,0.200,1804.000,0.300,1538.000,0.500,1638.000,1.000,601.000,5.000,0
"04/08/08","22:01:17",15134.000,"cc",28282.613,6.00,6,0.100,9378.000,0.200,1927.000,0.300,1522.000,0.500,1683.000,1.000,624.000,5.000,0
"04/08/08","22:01:23",15576.000,"cc",28197.348,6.00,6,0.100,9512.000,0.200,1981.000,0.300,1655.000,0.500,1714.000,1.000,714.000,5.000,0
"04/08/08","22:01:29",15388.000,"cc",28414.461,6.00,6,0.100,9523.000,0.200,1930.000,0.300,1521.000,0.500,1779.000,1.000,635.000,5.000,0
"04/08/08","22:01:35",15307.000,"cc",28431.297,6.00,6,0.100,9365.000,0.200,1935.000,0.300,1509.000,0.500,1812.000,1.000,686.000,5.000,0
"04/08/08","22:01:41",15733.000,"cc",28212.397,6.00,6,0.100,9514.000,0.200,2045.000,0.300,1688.000,0.500,1825.000,1.000,661.000,5.000,0
"04/08/08","22:01:47",17081.000,"cc",28101.690,6.00,6,0.100,10007.000,0.200,2469.000,0.300,1901.000,0.500,2006.000,1.000,698.000,5.000,0
"04/08/08","22:01:53",16618.000,"cc",28434.053,6.00,6,0.100,10268.000,0.200,2160.000,0.300,1770.000,0.500,1802.000,1.000,617.000,5.000,1.000
"04/08/08","22:01:59",16661.000,"cc",28373.652,6.00,6,0.100,10072.000,0.200,2184.000,0.300,1795.000,0.500,1882.000,1.000,728.000,5.000,0
"04/08/08","22:02:05",15934.000,"cc",28405.643,6.00,6,0.100,9827.000,0.200,2011.000,0.300,1634.000,0.500,1788.000,1.000,674.000,5.000,0
"04/08/08","22:02:11",15997.000,"cc",28266.943,6.00,6,0.100,9769.000,0.200,2139.000,0.300,1610.000,0.500,1843.000,1.000,636.000,5.000,0
"04/08/08","22:02:17",15409.000,"cc",28423.232,6.00,6,0.100,9531.000,0.200,1909.000,0.300,1582.000,0.500,1747.000,1.000,640.000,5.000,0
"04/08/08","22:02:23",15260.000,"cc",28187.234,6.00,6,0.100,9349.000,0.200,1988.000,0.300,1606.000,0.500,1733.000,1.000,584.000,5.000,0
"04/08/08","22:02:29",16097.000,"cc",28320.133,6.00,6,0.100,9718.000,0.200,2160.000,0.300,1739.000,0.500,1785.000,1.000,695.000,5.000,0
"04/08/08","22:02:35",16757.000,"cc",28367.022,6.00,6,0.100,10058.000,0.200,2271.000,0.300,1724.000,0.500,1989.000,1.000,715.000,5.000,0
"04/08/08","22:02:41",15906.000,"cc",28197.490,6.00,6,0.100,9521.000,0.200,2075.000,0.300,1795.000,0.500,1894.000,1.000,621.000,5.000,0
"04/08/08","22:02:47",16267.000,"cc",28351.121,6.00,6,0.100,9830.000,0.200,2137.000,0.300,1765.000,0.500,1890.000,1.000,645.000,5.000,0
"04/08/08","22:02:53",14723.000,"cc",28200.824,6.00,6,0.100,9228.000,0.200,1821.000,0.300,1474.000,0.500,1598.000,1.000,602.000,5.000,0
"04/08/08","22:02:59",15510.000,"cc",28337.152,6.00,6,0.100,9515.000,0.200,1958.000,0.300,1547.000,0.500,1807.000,1.000,683.000,5.000,0
"04/08/08","22:03:05",15330.000,"cc",28293.910,6.00,6,0.100,9362.000,0.200,1976.000,0.300,1594.000,0.500,1739.000,1.000,659.000,5.000,0
"04/08/08","22:03:11",16993.000,"cc",28289.008,6.00,6,0.100,10259.000,0.200,2306.000,0.300,1772.000,0.500,1907.000,1.000,749.000,5.000,0
"04/08/08","22:03:17",17280.000,"cc",28367.232,6.00,6,0.100,10380.000,0.200,2363.000,0.300,1881.000,0.500,1947.000,1.000,709.000,5.000,0
"04/08/08","22:03:23",17945.000,"cc",28318.438,6.00,6,0.100,10586.000,0.200,2607.000,0.300,1956.000,0.500,2042.000,1.000,754.000,5.000,0
"04/08/08","22:03:29",15568.000,"cc",28240.678,6.00,6,0.100,9485.000,0.200,2056.000,0.300,1561.000,0.500,1780.000,1.000,686.000,5.000,0
"04/08/08","22:03:35",15628.000,"cc",28315.270,6.00,6,0.100,9701.000,0.200,2027.000,0.300,1561.000,0.500,1709.000,1.000,630.000,5.000,0
"04/08/08","22:03:41",15293.000,"cc",28455.986,6.00,6,0.100,9352.000,0.200,1989.000,0.300,1548.000,0.500,1749.000,1.000,655.000,5.000,0
"04/08/08","22:03:47",15095.000,"cc",28360.190,6.00,6,0.100,9404.000,0.200,1900.000,0.300,1516.000,0.500,1643.000,1.000,632.000,5.000,0
"04/08/08","22:03:53",14668.000,"cc",28308.197,6.00,6,0.100,9183.000,0.200,1790.000,0.300,1499.000,0.500,1620.000,1.000,576.000,5.000,0
"04/08/08","22:03:59",14591.000,"cc",28326.371,6.00,6,0.100,9100.000,0.200,1858.000,0.300,1442.000,0.500,1588.000,1.000,603.000,5.000,0
"04/08/08","22:04:05",14262.000,"cc",28236.344,6.00,6,0.100,9048.000,0.200,1746.000,0.300,1393.000,0.500,1539.000,1.000,536.000,5.000,0
"04/08/08","22:04:11",14313.000,"cc",28293.365,6.00,6,0.100,9052.000,0.200,1749.000,0.300,1375.000,0.500,1555.000,1.000,582.000,5.000,0
"04/08/08","22:04:17",14269.000,"cc",28335.801,6.00,6,0.100,8926.000,0.200,1787.000,0.300,1366.000,0.500,1552.000,1.000,638.000,5.000,0
"04/08/08","22:04:23",14396.000,"cc",28421.949,6.00,6,0.100,9039.000,0.200,1796.000,0.300,1340.000,0.500,1622.000,1.000,599.000,5.000,0
"04/08/08","22:04:29",14258.000,"cc",28471.611,6.00,6,0.100,8920.000,0.200,1764.000,0.300,1405.000,0.500,1545.000,1.000,624.000,5.000,0
"04/08/08","22:04:35",13964.000,"cc",28090.848,6.00,6,0.100,8709.000,0.200,1710.000,0.300,1427.000,0.500,1560.000,1.000,558.000,5.000,0
"04/08/08","22:04:41",15040.000,"cc",28175.824,6.00,6,0.100,9304.000,0.200,1935.000,0.300,1482.000,0.500,1696.000,1.000,623.000,5.000,0
"04/08/08","22:04:47",15324.000,"cc",28327.607,6.00,6,0.100,9390.000,0.200,1876.000,0.300,1649.000,0.500,1784.000,1.000,625.000,5.000,0
"04/08/08","22:04:53",14697.000,"cc",28274.652,6.00,6,0.100,8963.000,0.200,1876.000,0.300,1551.000,0.500,1712.000,1.000,595.000,5.000,0
"04/08/08","22:04:59",14432.000,"cc",28468.227,6.00,6,0.100,8866.000,0.200,1748.000,0.300,1507.000,0.500,1659.000,1.000,652.000,5.000,0
"04/08/08","22:05:05",14604.000,"cc",28176.012,6.00,6,0.100,8937.000,0.200,1805.000,0.300,1519.000,0.500,1725.000,1.000,618.000,5.000,0
"04/08/08","22:05:11",14602.000,"cc",28208.309,6.00,6,0.100,8964.000,0.200,1886.000,0.300,1458.000,0.500,1638.000,1.000,656.000,5.000,0
"04/08/08","22:05:17",14219.000,"cc",28313.563,6.00,6,0.100,8804.000,0.200,1810.000,0.300,1376.000,0.500,1582.000,1.000,647.000,5.000,0
"04/08/08","22:05:23",14951.000,"cc",28330.563,6.00,6,0.100,9065.000,0.200,1923.000,0.300,1559.000,0.500,1752.000,1.000,652.000,5.000,0
"04/08/08","22:05:29",15151.000,"cc",28281.615,6.00,6,0.100,9132.000,0.200,2041.000,0.300,1612.000,0.500,1718.000,1.000,648.000,5.000,0
"04/08/08","22:05:35",15003.000,"cc",28439.158,6.00,6,0.100,9187.000,0.200,1967.000,0.300,1518.000,0.500,1672.000,1.000,658.000,5.000,1.000
"04/08/08","22:05:41",14444.000,"cc",28385.746,6.00,6,0.100,8786.000,0.200,1887.000,0.300,1536.000,0.500,1654.000,1.000,581.000,5.000,0
"04/08/08","22:05:47",14525.000,"cc",28121.859,6.00,6,0.100,8857.000,0.200,1879.000,0.300,1517.000,0.500,1661.000,1.000,611.000,5.000,0
"04/08/08","22:05:53",15284.000,"cc",28204.193,6.00,6,0.100,9082.000,0.200,2013.000,0.300,1692.000,0.500,1802.000,1.000,695.000,5.000,0
"04/08/08","22:05:59",15576.000,"cc",28361.168,6.00,6,0.100,9319.000,0.200,2083.000,0.300,1746.000,0.500,1789.000,1.000,639.000,5.000,0
"04/08/08","22:06:05",14736.000,"cc",28359.715,6.00,6,0.100,8980.000,0.200,1886.000,0.300,1555.000,0.500,1693.000,1.000,622.000,5.000,0
"04/08/08","22:06:11",14278.000,"cc",28264.941,6.00,6,0.100,8651.000,0.200,1870.000,0.300,1468.000,0.500,1680.000,1.000,609.000,5.000,0
"04/08/08","22:06:17",13687.000,"cc",28362.293,6.00,6,0.100,8296.000,0.200,1783.000,0.300,1456.000,0.500,1582.000,1.000,570.000,5.000,0
"04/08/08","22:06:23",14500.000,"cc",28360.877,6.00,6,0.100,8621.000,0.200,1910.000,0.300,1541.000,0.500,1734.000,1.000,694.000,5.000,0
"04/08/08","22:06:29",15589.000,"cc",28213.383,6.00,6,0.100,9201.000,0.200,2124.000,0.300,1719.000,0.500,1869.000,1.000,676.000,5.000,0
"04/08/08","22:06:35",15152.000,"cc",28399.451,6.00,6,0.100,8935.000,0.200,2021.000,0.300,1678.000,0.500,1899.000,1.000,619.000,5.000,0
"04/08/08","22:06:41",14416.000,"cc",28376.459,6.00,6,0.100,8619.000,0.200,1876.000,0.300,1556.000,0.500,1730.000,1.000,635.000,5.000,0
"04/08/08","22:06:47",13914.000,"cc",28119.617,6.00,6,0.100,8629.000,0.200,1757.000,0.300,1445.000,0.500,1547.000,1.000,536.000,5.000,0
"04/08/08","22:06:53",14696.000,"cc",28396.387,6.00,6,0.100,8845.000,0.200,1895.000,0.300,1570.000,0.500,1750.000,1.000,636.000,5.000,0
"04/08/08","22:06:59",14208.000,"cc",28376.451,6.00,6,0.100,8562.000,0.200,1906.000,0.300,1495.000,0.500,1630.000,1.000,615.000,5.000,0
"04/08/08","22:07:05",13690.000,"cc",28387.592,6.00,6,0.100,8203.000,0.200,1715.000,0.300,1480.000,0.500,1676.000,1.000,616.000,5.000,0
"04/08/08","22:07:11",13272.000,"cc",28128.643,6.00,6,0.100,8031.000,0.200,1730.000,0.300,1365.000,0.500,1544.000,1.000,602.000,5.000,0
"04/08/08","22:07:17",13908.000,"cc",28545.260,6.00,6,0.100,8475.000,0.200,1854.000,0.300,1477.000,0.500,1529.000,1.000,573.000,5.000,0
"04/08/08","22:07:23",12595.000,"cc",28284.412,6.00,6,0.100,7759.000,0.200,1649.000,0.300,1264.000,0.500,1418.000,1.000,505.000,5.000,0
"04/08/08","22:07:29",13011.000,"cc",28600.887,6.00,6,0.100,7980.000,0.200,1665.000,0.300,1296.000,0.500,1519.000,1.000,551.000,5.000,0
"04/08/08","22:07:35",12223.000,"cc",28189.285,6.00,6,0.100,7603.000,0.200,1578.000,0.300,1212.000,0.500,1333.000,1.000,497.000,5.000,0
"04/08/08","22:07:41",13450.000,"cc",28227.547,6.00,6,0.100,8113.000,0.200,1701.000,0.300,1463.000,0.500,1596.000,1.000,577.000,5.000,0
"04/08/08","22:07:47",13745.000,"cc",28247.008,6.00,6,0.100,8319.000,0.200,1791.000,0.300,1455.000,0.500,1563.000,1.000,617.000,5.000,0
"04/08/08","22:07:53",13926.000,"cc",28207.006,6.00,6,0.100,8253.000,0.200,1881.000,0.300,1512.000,0.500,1635.000,1.000,645.000,5.000,0
"04/08/08","22:07:59",13944.000,"cc",28122.240,6.00,6,0.100,8296.000,0.200,1845.000,0.300,1540.000,0.500,1688.000,1.000,575.000,5.000,0
"04/08/08","22:08:05",14528.000,"cc",28303.697,6.00,6,0.100,8551.000,0.200,1948.000,0.300,1639.000,0.500,1718.000,1.000,672.000,5.000,0
"04/08/08","22:08:11",13931.000,"cc",28400.045,6.00,6,0.100,8446.000,0.200,1864.000,0.300,1411.000,0.500,1637.000,1.000,573.000,5.000,0
"04/08/08","22:08:17",14257.000,"cc",28307.543,6.00,6,0.100,8587.000,0.200,1921.000,0.300,1556.000,0.500,1622.000,1.000,571.000,5.000,0
"04/08/08","22:08:23",14360.000,"cc",28220.154,6.00,6,0.100,8558.000,0.200,1964.000,0.300,1596.000,0.500,1672.000,1.000,570.000,5.000,0
"04/08/08","22:08:29",13215.000,"cc",28322.670,6.00,6,0.100,8122.000,0.200,1718.000,0.300,1301.000,0.500,1538.000,1.000,536.000,5.000,0
"04/08/08","22:08:35",13035.000,"cc",28450.941,6.00,6,0.100,7908.000,0.200,1687.000,0.300,1434.000,0.500,1452.000,1.000,554.000,5.000,0
"04/08/08","22:08:41",12834.000,"cc",28340.359,6.00,6,0.100,7926.000,0.200,1655.000,0.300,1284.000,0.500,1417.000,1.000,552.000,5.000,0
"04/08/08","22:08:47",12953.000,"cc",28424.463,6.00,6,0.100,7901.000,0.200,1665.000,0.300,1413.000,0.500,1425.000,1.000,549.000,5.000,0
"04/08/08","22:08:53",13258.000,"cc",28099.580,6.00,6,0.100,8006.000,0.200,1815.000,0.300,1416.000,0.500,1480.000,1.000,541.000,5.000,0
"04/08/08","22:08:59",14668.000,"cc",28258.492,6.00,6,0.100,8452.000,0.200,2114.000,0.300,1662.000,0.500,1731.000,1.000,709.000,5.000,0
"04/08/08","22:09:05",14035.000,"cc",28142.578,6.00,6,0.100,8154.000,0.200,2002.000,0.300,1644.000,0.500,1651.000,1.000,584.000,5.000,0
"04/08/08","22:09:11",14500.000,"cc",28185.514,6.00,6,0.100,8542.000,0.200,1959.000,0.300,1628.000,0.500,1717.000,1.000,654.000,5.000,0
"04/08/08","22:09:17",13469.000,"cc",28515.553,6.00,6,0.100,7975.000,0.200,1833.000,0.300,1505.000,0.500,1604.000,1.000,552.000,5.000,0
"04/08/08","22:09:23",12762.000,"cc",28390.252,6.00,6,0.100,7672.000,0.200,1677.000,0.300,1361.000,0.500,1463.000,1.000,589.000,5.000,0
"04/08/08","22:09:29",12892.000,"cc",28208.934,6.00,6,0.100,7837.000,0.200,1682.000,0.300,1296.000,0.500,1513.000,1.000,564.000,5.000,0
"04/08/08","22:09:35",13226.000,"cc",28202.416,6.00,6,0.100,7975.000,0.200,1785.000,0.300,1426.000,0.500,1471.000,1.000,569.000,5.000,0
"04/08/08","22:09:41",12632.000,"cc",28314.107,6.00,6,0.100,7860.000,0.200,1520.000,0.300,1350.000,0.500,1412.000,1.000,490.000,5.000,0
"04/08/08","22:09:47",12459.000,"cc",28420.729,6.00,6,0.100,7828.000,0.200,1500.000,0.300,1254.000,0.500,1373.000,1.000,504.000,5.000,0
"04/08/08","22:09:53",12732.000,"cc",28359.852,6.00,6,0.100,7961.000,0.200,1546.000,0.300,1263.000,0.500,1451.000,1.000,511.000,5.000,0
"04/08/08","22:09:59",12591.000,"cc",28513.412,6.00,6,0.100,7820.000,0.200,1570.000,0.300,1258.000,0.500,1410.000,1.000,533.000,5.000,0
"04/08/08","22:10:05",13374.000,"cc",28237.807,6.00,6,0.100,8373.000,0.200,1729.000,0.300,1356.000,0.500,1366.000,1.000,550.000,5.000,0
"04/08/08","22:10:11",13146.000,"cc",28287.885,6.00,6,0.100,8162.000,0.200,1669.000,0.300,1300.000,0.500,1430.000,1.000,585.000,5.000,0
"04/08/08","22:10:17",12694.000,"cc",28309.863,6.00,6,0.100,8220.000,0.200,1481.000,0.300,1241.000,0.500,1250.000,1.000,502.000,5.000,0
"04/08/08","22:10:23",13232.000,"cc",28284.066,6.00,6,0.100,8215.000,0.200,1641.000,0.300,1331.000,0.500,1488.000,1.000,557.000,5.000,0
"04/08/08","22:10:29",12844.000,"cc",28322.449,6.00,6,0.100,8274.000,0.200,1485.000,0.300,1191.000,0.500,1345.000,1.000,549.000,5.000,0
"04/08/08","22:10:35",14791.000,"cc",28279.629,6.00,6,0.100,8578.000,0.200,1974.000,0.300,1617.000,0.500,1825.000,1.000,797.000,5.000,0
"04/08/08","22:10:41",15387.000,"cc",28225.279,6.00,6,0.100,9041.000,0.200,2027.000,0.300,1676.000,0.500,1908.000,1.000,735.000,5.000,0
"04/08/08","22:10:47",13897.000,"cc",28403.832,6.00,6,0.100,8570.000,0.200,1836.000,0.300,1396.000,0.500,1516.000,1.000,579.000,5.000,0
"04/08/08","22:10:53",14284.000,"cc",28246.943,6.00,6,0.100,8583.000,0.200,1908.000,0.300,1546.000,0.500,1626.000,1.000,621.000,5.000,0
"04/08/08","22:10:59",12742.000,"cc",28128.262,6.00,6,0.100,8059.000,0.200,1524.000,0.300,1255.000,0.500,1442.000,1.000,462.000,5.000,0
"04/08/08","22:11:05",13459.000,"cc",28548.367,6.00,6,0.100,8410.000,0.200,1653.000,0.300,1353.000,0.500,1488.000,1.000,555.000,5.000,0
"04/08/08","22:11:11",14053.000,"cc",28193.133,6.00,6,0.100,8615.000,0.200,1765.000,0.300,1488.000,0.500,1580.000,1.000,605.000,5.000,0
"04/08/08","22:11:17",22557.000,"cc",28328.385,6.00,6,0.100,11947.000,0.200,3575.000,0.300,2776.000,0.500,3002.000,1.000,1257.000,5.000,0
"04/08/08","22:11:23",16192.000,"cc",28334.272,6.00,6,0.100,9500.000,0.200,2300.000,0.300,1719.000,0.500,1884.000,1.000,789.000,5.000,0
"04/08/08","22:11:29",13818.000,"cc",28381.195,6.00,6,0.100,8683.000,0.200,1679.000,0.300,1386.000,0.500,1516.000,1.000,553.000,5.000,1.000
"04/08/08","22:11:35",13147.000,"cc",28388.565,6.00,6,0.100,8286.000,0.200,1576.000,0.300,1356.000,0.500,1399.000,1.000,530.000,5.000,0
"04/08/08","22:11:41",13954.000,"cc",28201.949,6.00,6,0.100,8636.000,0.200,1713.000,0.300,1441.000,0.500,1574.000,1.000,590.000,5.000,0
"04/08/08","22:11:47",15447.000,"cc",28155.887,6.00,6,0.100,9164.000,0.200,2100.000,0.300,1668.000,0.500,1818.000,1.000,697.000,5.000,0
"04/08/08","22:11:53",14706.000,"cc",28495.932,6.00,6,0.100,9053.000,0.200,1906.000,0.300,1432.000,0.500,1695.000,1.000,620.000,5.000,0
"04/08/08","22:11:59",14210.000,"cc",28359.350,6.00,6,0.100,8751.000,0.200,1854.000,0.300,1463.000,0.500,1556.000,1.000,586.000,5.000,0
"04/08/08","22:12:05",13622.000,"cc",28426.361,6.00,6,0.100,8594.000,0.200,1655.000,0.300,1359.000,0.500,1468.000,1.000,546.000,5.000,0
"04/08/08","22:12:11",13746.000,"cc",28163.180,6.00,6,0.100,8470.000,0.200,1748.000,0.300,1387.000,0.500,1542.000,1.000,599.000,5.000,0
"04/08/08","22:12:17",15042.000,"cc",28363.998,6.00,6,0.100,8884.000,0.200,1994.000,0.300,1668.000,0.500,1802.000,1.000,694.000,5.000,0
"04/08/08","22:12:23",15200.000,"cc",28178.242,6.00,6,0.100,9046.000,0.200,2078.000,0.300,1592.000,0.500,1831.000,1.000,653.000,5.000,0
"04/08/08","22:12:29",14494.000,"cc",28157.770,6.00,6,0.100,8734.000,0.200,1929.000,0.300,1582.000,0.500,1671.000,1.000,578.000,5.000,0
"04/08/08","22:12:35",13895.000,"cc",28315.977,6.00,6,0.100,8627.000,0.200,1722.000,0.300,1388.000,0.500,1540.000,1.000,618.000,5.000,0
"04/08/08","22:12:41",13629.000,"cc",28313.656,6.00,6,0.100,8476.000,0.200,1693.000,0.300,1354.000,0.500,1548.000,1.000,558.000,5.000,0
"04/08/08","22:12:47",13715.000,"cc",28165.746,6.00,6,0.100,8456.000,0.200,1758.000,0.300,1407.000,0.500,1539.000,1.000,555.000,5.000,0
"04/08/08","22:12:53",14297.000,"cc",28356.504,6.00,6,0.100,8758.000,0.200,1741.000,0.300,1527.000,0.500,1673.000,1.000,598.000,5.000,0
"04/08/08","22:12:59",14216.000,"cc",28425.883,6.00,6,0.100,8748.000,0.200,1760.000,0.300,1493.000,0.500,1622.000,1.000,593.000,5.000,0
"04/08/08","22:13:05",13869.000,"cc",28348.350,6.00,6,0.100,8560.000,0.200,1693.000,0.300,1397.000,0.500,1581.000,1.000,638.000,5.000,0
"04/08/08","22:13:11",13223.000,"cc",28338.350,6.00,6,0.100,8370.000,0.200,1593.000,0.300,1298.000,0.500,1412.000,1.000,549.000,5.000,1.000
"04/08/08","22:13:17",13423.000,"cc",28168.164,6.00,6,0.100,8394.000,0.200,1697.000,0.300,1327.000,0.500,1408.000,1.000,597.000,5.000,0
"04/08/08","22:13:23",13963.000,"cc",28485.400,6.00,6,0.100,8721.000,0.200,1738.000,0.300,1373.000,0.500,1546.000,1.000,585.000,5.000,0
"04/08/08","22:13:29",13722.000,"cc",28266.875,6.00,6,0.100,8477.000,0.200,1725.000,0.300,1393.000,0.500,1542.000,1.000,585.000,5.000,0
"04/08/08","22:13:35",14275.000,"cc",28266.863,6.00,6,0.100,8902.000,0.200,1723.000,0.300,1460.000,0.500,1581.000,1.000,608.000,5.000,1.000
"04/08/08","22:13:41",14273.000,"cc",28509.756,6.00,6,0.100,8797.000,0.200,1773.000,0.300,1400.000,0.500,1711.000,1.000,592.000,5.000,0
"04/08/08","22:13:47",14081.000,"cc",28069.594,6.00,6,0.100,8824.000,0.200,1701.000,0.300,1403.000,0.500,1581.000,1.000,572.000,5.000,0
"04/08/08","22:13:53",14385.000,"cc",28266.481,6.00,6,0.100,8795.000,0.200,1830.000,0.300,1501.000,0.500,1629.000,1.000,630.000,5.000,0
"04/08/08","22:13:59",14390.000,"cc",28384.412,6.00,6,0.100,8818.000,0.200,1888.000,0.300,1504.000,0.500,1603.000,1.000,577.000,5.000,0
"04/08/08","22:14:05",14458.000,"cc",28246.684,6.00,6,0.100,8808.000,0.200,1823.000,0.300,1542.000,0.500,1677.000,1.000,607.000,5.000,1.000
"04/08/08","22:14:11",14862.000,"cc",28263.736,6.00,6,0.100,9097.000,0.200,1934.000,0.300,1537.000,0.500,1660.000,1.000,634.000,5.000,0
"04/08/08","22:14:17",15564.000,"cc",28278.285,6.00,6,0.100,9358.000,0.200,2030.000,0.300,1667.000,0.500,1848.000,1.000,661.000,5.000,0
"04/08/08","22:14:23",15811.000,"cc",28271.871,6.00,6,0.100,9287.000,0.200,2080.000,0.300,1784.000,0.500,1976.000,1.000,683.000,5.000,1.000
"04/08/08","22:14:29",16014.000,"cc",28260.660,6.00,6,0.100,9511.000,0.200,2144.000,0.300,1735.000,0.500,1938.000,1.000,686.000,5.000,0
"04/08/08","22:14:35",15312.000,"cc",28299.877,6.00,6,0.100,9103.000,0.200,2084.000,0.300,1655.000,0.500,1841.000,1.000,629.000,5.000,0
"04/08/08","22:14:41",15633.000,"cc",28339.619,6.00,6,0.100,9198.000,0.200,2132.000,0.300,1757.000,0.500,1859.000,1.000,687.000,5.000,0
"04/08/08","22:14:47",15829.000,"cc",28338.506,6.00,6,0.100,9433.000,0.200,2163.000,0.300,1701.000,0.500,1850.000,1.000,682.000,5.000,0
"04/08/08","22:14:53",15752.000,"cc",28411.297,6.00,6,0.100,9374.000,0.200,2116.000,0.300,1720.000,0.500,1818.000,1.000,724.000,5.000,0
"04/08/08","22:14:59",15585.000,"cc",28318.777,6.00,6,0.100,9280.000,0.200,2106.000,0.300,1728.000,0.500,1777.000,1.000,694.000,5.000,0
"04/08/08","22:15:05",15116.000,"cc",28328.504,6.00,6,0.100,9164.000,0.200,1981.000,0.300,1604.000,0.500,1718.000,1.000,649.000,5.000,0
"04/08/08","22:15:11",14910.000,"cc",28252.227,6.00,6,0.100,9018.000,0.200,1889.000,0.300,1573.000,0.500,1726.000,1.000,704.000,5.000,0
"04/08/08","22:15:17",14996.000,"cc",28288.979,6.00,6,0.100,9191.000,0.200,1829.000,0.300,1561.000,0.500,1755.000,1.000,659.000,5.000,1.000
"04/08/08","22:15:23",14569.000,"cc",28292.496,6.00,6,0.100,8949.000,0.200,1883.000,0.300,1470.000,0.500,1663.000,1.000,604.000,5.000,0
"04/08/08","22:15:29",15151.000,"cc",28194.922,6.00,6,0.100,9055.000,0.200,2035.000,0.300,1669.000,0.500,1749.000,1.000,643.000,5.000,0
"04/08/08","22:15:35",15446.000,"cc",28290.078,6.00,6,0.100,9221.000,0.200,2045.000,0.300,1675.000,0.500,1812.000,1.000,693.000,5.000,0
"04/08/08","22:15:41",14896.000,"cc",28327.330,6.00,6,0.100,8918.000,0.200,1937.000,0.300,1601.000,0.500,1790.000,1.000,650.000,5.000,0
"04/08/08","22:15:47",15565.000,"cc",28170.156,6.00,6,0.100,9260.000,0.200,2078.000,0.300,1664.000,0.500,1885.000,1.000,678.000,5.000,0
"04/08/08","22:15:53",15926.000,"cc",28344.447,6.00,6,0.100,9568.000,0.200,2069.000,0.300,1726.000,0.500,1900.000,1.000,663.000,5.000,0
"04/08/08","22:15:59",16184.000,"cc",28381.746,6.00,6,0.100,9756.000,0.200,2165.000,0.300,1727.000,0.500,1836.000,1.000,700.000,5.000,0
"04/08/08","22:16:05",17170.000,"cc",28262.568,6.00,6,0.100,9997.000,0.200,2392.000,0.300,1923.000,0.500,2080.000,1.000,778.000,5.000,0
"04/08/08","22:16:11",15951.000,"cc",28264.971,6.00,6,0.100,9762.000,0.200,2117.000,0.300,1528.000,0.500,1894.000,1.000,649.000,5.000,1.000
"04/08/08","22:16:17",15348.000,"cc",28420.035,6.00,6,0.100,9354.000,0.200,2065.000,0.300,1589.000,0.500,1715.000,1.000,625.000,5.000,0
"04/08/08","22:16:23",15033.000,"cc",28304.606,6.00,6,0.100,9143.000,0.200,1938.000,0.300,1557.000,0.500,1742.000,1.000,653.000,5.000,0
"04/08/08","22:16:29",15461.000,"cc",28220.836,6.00,6,0.100,9393.000,0.200,1986.000,0.300,1674.000,0.500,1731.000,1.000,676.000,5.000,1.000